CW4199 Weather Reports


time (UTC)temp
F
wind
direction
speed
knots
gust
knots
rain 1hr
in
rain 24hr
in
rain mn
in
humidity
%
barometer
mb
20260504204904 79 219 8.7 15.6 0.00 0.00 0.00 42 1010.1
20260504204404 80 229 4.3 10.4 0.00 0.00 0.00 44 1010.1
20260504203904 79 246 7.8 14.8 0.00 0.00 0.00 43 1010.3
20260504203404 79 250 6.1 13.0 0.00 0.00 0.00 42 1010.2
20260504202904 80 208 7.8 17.4 0.00 0.00 0.00 43 1010.3
20260504202404 79 221 4.3 8.7 0.00 0.00 0.00 44 1010.4
20260504201904 79 215 8.7 15.6 0.00 0.00 0.00 41 1010.5
20260504201404 79 224 7.8 13.9 0.00 0.00 0.00 43 1010.6
20260504200905 80 196 4.3 10.4 0.00 0.00 0.00 44 1010.8
20260504200404 79 224 7.0 14.8 0.00 0.00 0.00 44 1010.6
20260504195904 79 235 6.1 11.3 0.00 0.00 0.00 44 1010.9
20260504195404 79 271 5.2 15.6 0.00 0.00 0.00 43 1011.0
20260504194904 79 228 7.0 15.6 0.00 0.00 0.00 44 1011.2
20260504193904 79 255 7.8 15.6 0.00 0.00 0.00 41 1011.3
20260504193404 79 212 8.7 13.0 0.00 0.00 0.00 44 1011.4
20260504192904 79 243 7.0 14.8 0.00 0.00 0.00 43 1011.6
20260504191904 79 220 6.1 14.8 0.00 0.00 0.00 43 1011.8
20260504191404 79 218 4.3 13.9 0.00 0.00 0.00 44 1011.9
20260504190904 79 197 6.1 17.4 0.00 0.00 0.00 48 1011.8
20260504190404 79 207 7.8 18.2 0.00 0.00 0.00 44 1011.8
20260504185904 78 205 5.2 13.0 0.00 0.00 0.00 44 1012.0
20260504184904 79 234 3.5 12.2 0.00 0.00 0.00 43 1012.1
20260504184405 79 241 3.5 8.7 0.00 0.00 0.00 44 1012.3
20260504183904 78 240 7.8 13.9 0.00 0.00 0.00 44 1012.1
20260504183404 79 248 3.5 13.0 0.00 0.00 0.00 45 1012.2
20260504182904 79 286 3.5 10.4 0.00 0.00 0.00 46 1012.2
20260504182404 78 236 6.1 17.4 0.00 0.00 0.00 45 1012.2
20260504181404 78 212 7.8 17.4 0.00 0.00 0.00 44 1012.4
20260504180905 78 244 6.1 22.6 0.00 0.00 0.00 44 1012.4
20260504175904 77 244 6.1 12.2 0.00 0.00 0.00 43 1012.3
20260504175404 78 245 5.2 13.9 0.00 0.00 0.00 45 1012.4
20260504174904 78 232 4.3 13.0 0.00 0.00 0.00 45 1012.5
20260504174404 77 255 7.8 15.6 0.00 0.00 0.00 43 1012.7
20260504173904 77 217 7.8 15.6 0.00 0.00 0.00 43 1012.6
20260504173404 78 221 7.8 13.9 0.00 0.00 0.00 45 1012.7
20260504172905 77 218 7.8 17.4 0.00 0.00 0.00 47 1012.7
20260504172403 78 275 6.1 12.2 0.00 0.00 0.00 47 1012.9
20260504171904 78 275 3.5 8.7 0.00 0.00 0.00 48 1012.9
20260504171404 77 278 3.5 13.0 0.00 0.00 0.00 48 1012.9
20260504170904 77 240 5.2 11.3 0.00 0.00 0.00 47 1013.1
20260504170404 76 265 7.8 15.6 0.00 0.00 0.00 46 1013.1
20260504160404 74 216 4.3 10.4 0.00 0.00 0.00 53 1013.9
20260504150404 72 251 4.3 10.4 0.00 0.00 0.00 57 1014.2
20260504140904 67 231 2.6 10.4 0.00 0.00 0.00 63 1014.1
20260504140404 67 223 3.5 7.8 0.00 0.00 0.00 62 1014.1
20260504130404 64 207 4.3 10.4 0.00 0.00 0.00 66 1014.5
20260504110404 59 223 2.6 10.4 0.00 0.00 0.00 68 1013.6
20260504100404 59 223 4.3 11.3 0.00 0.00 0.00 66 1013.8
20260504081904 60 207 4.3 8.7 0.00 0.00 0.00 61 1014.1
20260504081404 60 210 3.5 8.7 0.00 0.00 0.00 61 1014.1
20260504080904 60 207 5.2 10.4 0.00 0.00 0.00 61 1014.1
20260504080404 60 210 4.3 8.7 0.00 0.00 0.00 60 1014.1
20260504070403 61 216 2.6 7.8 0.00 0.00 0.00 58 1014.6
20260504050404 60 194 2.6 5.2 0.00 0.00 0.00 56 1015.5
20260504045405 60 198 3.5 7.0 0.00 0.00 0.00 56 1015.6
20260504044904 60 210 2.6 7.0 0.00 0.00 0.00 56 1015.6
20260504044404 61 203 1.7 6.1 0.00 0.00 0.00 55 1015.7
20260504043404 61 218 2.6 7.8 0.00 0.00 0.00 55 1015.7
20260504042904 61 208 2.6 6.1 0.00 0.00 0.00 54 1015.7
20260504042404 61 210 4.3 7.0 0.00 0.00 0.00 54 1015.7
20260504041903 61 214 2.6 5.2 0.00 0.00 0.00 54 1015.8
20260504041403 61 218 2.6 6.1 0.00 0.00 0.00 54 1015.7
20260504040904 61 203 4.3 7.0 0.00 0.00 0.00 54 1015.8
20260504040404 61 215 4.3 8.7 0.00 0.00 0.00 53 1015.8
20260504035904 61 217 5.2 10.4 0.00 0.00 0.00 53 1015.9
20260504035404 61 204 4.3 7.8 0.00 0.00 0.00 53 1016.0
20260504034904 62 207 4.3 8.7 0.00 0.00 0.00 52 1016.0
20260504034404 62 198 3.5 10.4 0.00 0.00 0.00 52 1016.0
20260504033904 62 215 3.5 7.0 0.00 0.00 0.00 52 1016.0
20260504033404 62 198 3.5 7.0 0.00 0.00 0.00 51 1016.0
20260504031904 62 202 4.3 7.8 0.00 0.00 0.00 50 1016.0
20260504031404 63 204 4.3 7.8 0.00 0.00 0.00 49 1016.0
20260504030904 63 209 4.3 8.7 0.00 0.00 0.00 49 1016.0
20260504025904 63 201 5.2 7.8 0.00 0.00 0.00 49 1016.1
20260504025404 63 213 4.3 7.8 0.00 0.00 0.00 48 1016.1
20260504023904 63 218 4.3 7.8 0.00 0.00 0.00 49 1015.9
20260504023404 63 209 4.3 7.8 0.00 0.00 0.00 49 1016.0
20260504022904 63 224 4.3 7.8 0.00 0.00 0.00 49 1016.1
20260504022403 63 205 3.5 7.0 0.00 0.00 0.00 49 1016.1
20260504021904 63 198 2.6 6.1 0.00 0.00 0.00 49 1016.1
20260504021404 63 209 2.6 7.0 0.00 0.00 0.00 48 1016.1
20260504020903 63 199 3.5 8.7 0.00 0.00 0.00 49 1016.0
20260504020403 62 212 3.5 7.8 0.00 0.00 0.00 50 1016.0
20260504015904 62 207 3.5 7.0 0.00 0.00 0.00 50 1016.1
20260504015404 63 221 2.6 4.3 0.00 0.00 0.00 50 1016.1
20260504014403 62 206 2.6 4.3 0.00 0.00 0.00 51 1015.9
20260504013904 62 207 1.7 4.3 0.00 0.00 0.00 50 1015.8
20260504013404 62 225 1.7 4.3 0.00 0.00 0.00 51 1015.8
20260504012904 62 199 1.7 4.3 0.00 0.00 0.00 51 1015.9
20260504012404 63 196 1.7 2.6 0.00 0.00 0.00 50 1015.8
20260504011403 63 201 1.7 2.6 0.00 0.00 0.00 49 1015.9
20260504010904 63 202 0.9 2.6 0.00 0.00 0.00 48 1015.9
20260504010404 64 202 1.7 2.6 0.00 0.00 0.00 48 1015.9
20260504005904 64 202 1.7 4.3 0.00 0.00 0.00 48 1015.9
20260504005404 64 223 1.7 2.6 0.00 0.00 0.00 48 1015.9
20260504004404 65 209 1.7 2.6 0.00 0.00 0.00 46 1015.8
20260504003404 66 207 1.7 4.3 0.00 0.00 0.00 45 1015.7
20260504002903 66 209 1.7 4.3 0.00 0.00 0.00 44 1015.8
20260504002404 66 219 2.6 5.2 0.00 0.00 0.00 44 1015.8
20260504001904 67 213 1.7 4.3 0.00 0.00 0.00 43 1015.9
20260504001404 67 221 2.6 4.3 0.00 0.00 0.00 43 1015.8
20260504000404 68 189 1.7 6.1 0.00 0.00 0.00 41 1015.9
20260503235903 68 210 1.7 4.3 0.00 0.00 0.00 41 1015.9
20260503235404 68 231 2.6 6.1 0.00 0.00 0.00 40 1015.9
20260503234904 68 257 2.6 4.3 0.00 0.00 0.00 41 1016.0
20260503232903 69 203 5.2 10.4 0.00 0.00 0.00 38 1016.2
20260503232403 69 225 1.7 8.7 0.00 0.00 0.00 38 1016.2
20260503231904 69 221 3.5 7.8 0.00 0.00 0.00 38 1016.2
20260503231404 69 263 2.6 10.4 0.00 0.00 0.00 37 1016.3
20260503230904 69 311 1.7 8.7 0.00 0.00 0.00 39 1016.3
20260503225904 70 222 4.3 8.7 0.00 0.00 0.00 37 1016.3
20260503225403 70 258 4.3 10.4 0.00 0.00 0.00 36 1016.3
20260503224404 70 250 2.6 6.1 0.00 0.00 0.00 38 1016.4
20260503223904 70 263 3.5 7.8 0.00 0.00 0.00 37 1016.5
20260503223404 70 248 4.3 8.7 0.00 0.00 0.00 37 1016.6
20260503222903 71 203 3.5 7.8 0.00 0.00 0.00 37 1016.5
20260503221403 71 252 2.6 8.7 0.00 0.00 0.00 36 1016.7
20260503220903 71 207 2.6 8.7 0.00 0.00 0.00 38 1016.8
20260503220404 71 186 5.2 7.8 0.00 0.00 0.00 38 1016.7
20260503215904 71 202 4.3 7.0 0.00 0.00 0.00 37 1016.8
20260503214904 71 201 2.6 10.4 0.00 0.00 0.00 38 1017.0
20260503214404 71 294 4.3 8.7 0.00 0.00 0.00 38 1017.2
20260503213903 71 218 2.6 7.0 0.00 0.00 0.00 38 1017.2
20260503213403 71 253 0.9 10.4 0.00 0.00 0.00 40 1017.3
20260503212903 70 214 5.2 10.4 0.00 0.00 0.00 37 1017.4
20260503212404 71 235 5.2 10.4 0.00 0.00 0.00 38 1017.5
20260503211904 71 290 4.3 10.4 0.00 0.00 0.00 38 1017.6
20260503211403 71 223 5.2 10.4 0.00 0.00 0.00 37 1017.7
20260503210903 71 285 3.5 10.4 0.00 0.00 0.00 38 1017.9
20260503210403 71 221 3.5 10.4 0.00 0.00 0.00 38 1018.0
20260503205904 71 250 3.5 10.4 0.00 0.00 0.00 38 1018.1
20260503205403 71 252 5.2 10.4 0.00 0.00 0.00 39 1018.1